Martinsburg, WV

10:45 AM EST on February 14, 2016 (GMT -0500)
Eastern W Va Regional-Shepherd

Weather History for KMRB - January, 2015

Change the Weather History Date:

Thursday, January 22, 2015

  Actual Average Record
Temperature  
Mean Temperature 38 °F 31 °F  
Max Temperature 43 °F 40 °F 66 °F (1967)
Min Temperature 32 °F 22 °F -16 °F (1984)
Degree Days  
Heating Degree Days 27 34  
Month to date heating degree days 759 748  
Since 1 July heating degree days 2528 2774  
Cooling Degree Days 0 0  
Month to date cooling degree days 0 0  
Year to date cooling degree days 0 0  
Moisture  
Dew Point 28 °F    
Average Humidity 71    
Maximum Humidity 92    
Minimum Humidity 49    
Precipitation  
Precipitation 0.01 in 0.09 in 0.68 in (1987)
Month to date precipitation 1.07 1.70  
Year to date precipitation 1.07 1.70  
Sea Level Pressure  
Sea Level Pressure 30.27 in    
Wind  
Wind Speed 8 mph (WSW)    
Max Wind Speed 21 mph    
Max Gust Speed 27 mph    
Visibility 6 miles    
Events Fog    
T = Trace of Precipitation, MM = Missing Value Source: NWS Daily Summary

Daily Weather History Graph

Daily Weather History Graph

Search for Another Location

Airport or City:

Trip Planner

Search our weather history database for the weather conditions in past years. The results will help you decide how hot, cold, wet, or windy it might be!

Date:

Astronomy

Jan. 22, 2015 Rise Set
Actual Time 7:26 AM EST 5:20 PM EST
Civil Twilight 6:57 AM EST 5:49 PM EST
Nautical Twilight 6:25 AM EST 6:22 PM EST
Astronomical Twilight 5:53 AM EST 6:54 PM EST
Moon 8:38 AM EST (1/22) 8:16 PM EST (1/22)
Length of Visible Light 10h 51m
Length of Day
9h 53m
Waxing Crescent, 7% of the Moon is Illuminated
Jan 22
Waxing Crescent
Jan 26
First Quarter
Feb 3
Full
Feb 11
Last Quarter
Feb 18
New

Hourly Weather History & Observations

Time (EST) Temp. Windchill Dew Point Humidity Pressure Visibility Wind Dir Wind Speed Gust Speed Precip Events Conditions
12:23 AM 33.1 °F - 30.9 °F 92% 30.14 in 0.2 mi Calm Calm - N/A Fog Fog
2:53 AM 32.0 °F 28.7 °F 28.9 °F 88% 30.17 in 0.5 mi SSW 3.5 mph - 0.01 in Fog Fog
3:15 AM 32.0 °F 27.5 °F 30.0 °F 92% 30.15 in 1.2 mi SW 4.6 mph - N/A   Overcast
3:44 AM 32.0 °F 28.7 °F 30.0 °F 92% 30.15 in 2.0 mi SSW 3.5 mph - N/A   Overcast
3:53 AM 32.0 °F 28.7 °F 30.0 °F 92% 30.17 in 2.0 mi SW 3.5 mph - N/A   Overcast
4:10 AM 32.0 °F 26.4 °F 30.0 °F 92% 30.15 in 1.8 mi South 5.8 mph - N/A   Overcast
4:53 AM 33.1 °F - 30.0 °F 89% 30.17 in 2.0 mi Calm Calm - N/A   Overcast
5:15 AM 33.1 °F 28.7 °F 30.0 °F 89% 30.16 in 2.5 mi SSW 4.6 mph - N/A   Overcast
5:53 AM 32.0 °F 27.5 °F 28.9 °F 88% 30.19 in 2.5 mi SSW 4.6 mph - N/A   Overcast
6:27 AM 32.0 °F 27.5 °F 28.9 °F 88% 30.19 in 3.0 mi WSW 4.6 mph - N/A   Overcast
6:39 AM 32.0 °F 27.5 °F 28.9 °F 88% 30.19 in 2.5 mi WSW 4.6 mph - N/A   Overcast
6:49 AM 32.0 °F 27.5 °F 30.2 °F 93% 30.19 in 3.0 mi West 4.6 mph - N/A   Overcast
6:53 AM 33.1 °F 28.7 °F 30.0 °F 89% 30.21 in 3.0 mi WSW 4.6 mph - N/A   Overcast
7:50 AM 33.8 °F 30.8 °F 30.2 °F 87% 30.23 in 4.0 mi South 3.5 mph - N/A   Overcast
7:53 AM 33.1 °F 30.0 °F 30.9 °F 92% 30.25 in 4.0 mi South 3.5 mph - N/A   Overcast
8:53 AM 36.0 °F 30.3 °F 30.9 °F 82% 30.28 in 10.0 mi NNW 6.9 mph - N/A   Overcast
9:10 AM 37.0 °F 32.4 °F 30.0 °F 76% 30.26 in 2.5 mi Variable 5.8 mph - N/A   Haze
9:17 AM 39.9 °F 37.8 °F 28.9 °F 65% 30.27 in 10.0 mi Variable 3.5 mph - N/A   Overcast
9:53 AM 41.0 °F - 28.9 °F 62% 30.30 in 10.0 mi Calm Calm - N/A   Overcast
10:53 AM 39.9 °F 33.4 °F 28.9 °F 65% 30.32 in 10.0 mi WNW 10.4 mph - N/A   Overcast
11:53 AM 39.9 °F 32.5 °F 27.0 °F 60% 30.32 in 10.0 mi West 12.7 mph 19.6 mph N/A   Overcast
12:53 PM 42.1 °F 35.2 °F 28.9 °F 60% 30.30 in 10.0 mi West 12.7 mph - N/A   Overcast
1:53 PM 41.0 °F 33.5 °F 25.0 °F 53% 30.31 in 10.0 mi West 13.8 mph 26.5 mph N/A   Overcast
2:53 PM 39.9 °F 31.4 °F 26.1 °F 58% 30.32 in 10.0 mi WSW 16.1 mph - N/A   Partly Cloudy
3:53 PM 42.1 °F 34.2 °F 25.0 °F 51% 30.33 in 10.0 mi West 16.1 mph - N/A   Scattered Clouds
4:53 PM 41.0 °F 33.5 °F 25.0 °F 53% 30.35 in 10.0 mi NW 13.8 mph 20.7 mph N/A   Mostly Cloudy
5:53 PM 39.9 °F 32.5 °F 25.0 °F 55% 30.37 in 10.0 mi WNW 12.7 mph - N/A   Partly Cloudy
6:53 PM 39.0 °F 31.8 °F 25.0 °F 57% 30.39 in 10.0 mi WNW 11.5 mph - N/A   Mostly Cloudy
7:53 PM 39.0 °F 31.8 °F 24.1 °F 55% 30.40 in 10.0 mi WNW 11.5 mph 18.4 mph N/A   Overcast
8:53 PM 37.9 °F 31.5 °F 24.1 °F 57% 30.40 in 10.0 mi WNW 9.2 mph - N/A   Overcast
9:53 PM 37.9 °F 30.5 °F 24.1 °F 57% 30.40 in 10.0 mi WNW 11.5 mph - N/A   Mostly Cloudy
10:53 PM 37.0 °F 31.6 °F 24.1 °F 59% 30.40 in 10.0 mi NW 6.9 mph - N/A   Overcast
11:53 PM 37.0 °F 30.4 °F 23.0 °F 57% 30.39 in 10.0 mi WNW 9.2 mph - N/A   Overcast